Weather History for Boscobel, WI

Change the Weather History Date:

Friday, October 5, 2012

  Actual Average (KPDC) Record (KPDC)
Temperature  
Mean Temperature 42 °F -  
Max Temperature 50 °F 67 °F 86 °F (1963)
Min Temperature 35 °F 44 °F 27 °F (1980)
Degree Days  
Heating Degree Days 24    
Moisture  
Dew Point 27 °F    
Average Humidity 56    
Maximum Humidity 82    
Minimum Humidity 33    
Precipitation  
Precipitation 0.00 in - - ()
Sea Level Pressure  
Sea Level Pressure 30.15 in    
Wind  
Wind Speed 8 mph (WSW)    
Max Wind Speed 15 mph    
Max Gust Speed 25 mph    
Visibility 10 miles    
Events      
Averages and records for this station are not official NWS values.
T = Trace of Precipitation, MM = Missing Value Source: NWS Daily Summary

Daily Weather History Graph

Daily Weather History Graph

Search for Another Location

Airport:

Trip Planner

Search our weather history database for the weather conditions in past years. The results will help you decide how hot, cold, wet, or windy it might be!

Date:

Astronomy

Oct. 05, 2012 Rise Set
Actual Time 7:05 AM CDT 6:35 PM CDT
Civil Twilight 6:36 AM CDT 7:04 PM CDT
Nautical Twilight 6:03 AM CDT 7:37 PM CDT
Astronomical Twilight 5:30 AM CDT 8:10 PM CDT
Moon 9:52 PM CDT (10/5) 12:20 PM CDT (10/5)
Length of Visible Light 12h 27m
Length of Day
11h 30m
Waning Gibbous, 74% of the Moon is Illuminated
Oct 5
Waning Gibbous
Oct 8
Last Quarter
Oct 15
New
Oct 21
First Quarter
Oct 29
Full

Hourly Weather History & Observations

Time (CDT) Temp. Windchill Dew Point Humidity Pressure Visibility Wind Dir Wind Speed Gust Speed Precip Events Conditions
12:53 AM 42.1 °F 38.4 °F 30.9 °F 65% 30.17 in 10.0 mi WSW 5.8 mph - N/A   Clear
1:53 AM 39.0 °F 34.8 °F 30.0 °F 70% 30.19 in 10.0 mi SSW 5.8 mph - N/A   Clear
3:53 AM 39.0 °F 34.0 °F 30.9 °F 73% 30.18 in 10.0 mi West 6.9 mph - N/A   Clear
4:53 AM 39.0 °F 34.8 °F 30.9 °F 73% 30.18 in 10.0 mi WSW 5.8 mph - N/A   Clear
5:53 AM 35.1 °F 31.0 °F 30.0 °F 82% 30.18 in 10.0 mi SSW 4.6 mph - N/A   Clear
6:53 AM 35.1 °F 30.1 °F 30.0 °F 82% 30.19 in 10.0 mi SSW 5.8 mph - N/A   Clear
7:53 AM 36.0 °F 31.1 °F 30.9 °F 82% 30.19 in 10.0 mi SW 5.8 mph - N/A   Clear
8:53 AM 42.1 °F 37.1 °F 32.0 °F 67% 30.18 in 10.0 mi SW 8.1 mph - N/A   Clear
9:53 AM 43.0 °F 36.4 °F 28.0 °F 56% 30.18 in 10.0 mi West 12.7 mph 18.4 mph N/A   Clear
10:53 AM 45.0 °F 39.7 °F 27.0 °F 49% 30.18 in 10.0 mi West 10.4 mph 20.7 mph N/A   Clear
11:53 AM 46.0 °F 41.9 °F 27.0 °F 47% 30.16 in 10.0 mi West 8.1 mph - N/A   Clear
12:53 PM 45.0 °F 40.6 °F 25.0 °F 46% 30.15 in 10.0 mi West 8.1 mph 17.3 mph N/A   Clear
1:53 PM 46.9 °F - 25.0 °F 42% 30.13 in 10.0 mi West 10.4 mph - N/A   Clear
2:53 PM 48.0 °F - 24.1 °F 39% 30.13 in 10.0 mi West 9.2 mph 21.9 mph N/A   Clear
3:53 PM 48.9 °F - 24.1 °F 38% 30.11 in 10.0 mi SW 11.5 mph 17.3 mph N/A   Clear
4:53 PM 48.9 °F - 21.9 °F 35% 30.09 in 10.0 mi West 15.0 mph 25.3 mph N/A   Clear
5:53 PM 48.9 °F - 21.0 °F 33% 30.10 in 10.0 mi West 11.5 mph 20.7 mph N/A   Clear
6:53 PM 46.0 °F 40.6 °F 24.1 °F 42% 30.11 in 10.0 mi West 11.5 mph 20.7 mph N/A   Clear
7:53 PM 43.0 °F 39.5 °F 24.1 °F 47% 30.12 in 10.0 mi SW 5.8 mph - N/A   Clear
8:53 PM 41.0 °F 38.0 °F 25.0 °F 53% 30.12 in 10.0 mi SW 4.6 mph - N/A   Clear
9:53 PM 42.1 °F 40.2 °F 27.0 °F 55% 30.12 in 10.0 mi West 3.5 mph - N/A   Scattered Clouds
10:53 PM 43.0 °F 36.4 °F 26.1 °F 51% 30.14 in 10.0 mi NW 12.7 mph 21.9 mph N/A   Overcast
11:53 PM 41.0 °F 34.7 °F 25.0 °F 53% 30.14 in 10.0 mi West 10.4 mph 19.6 mph N/A   Mostly Cloudy